SP1RAC-13 Weather Reports


Display with metric or nautical units.
time (UTC)temp
F
wind
direction
speed
MPH
gust
MPH
rain 1hr
in
rain 24hr
in
rain mn
in
humidity
%
barometer
mb
20260905195911 60 0.0 0.0 0.00 0.00 0.00 92 1011.7
20260905193912 60 0.0 0.0 0.00 0.00 0.00 88 1011.7
20260905191914 60 0.0 0.0 0.00 0.00 0.00 87 1011.4
20260905190913 60 0.0 0.0 0.00 0.00 0.00 85 1011.5
20260905184911 60 0.0 0.0 0.00 0.00 0.00 85 1011.5
20260905183911 60 0.0 0.0 0.00 0.00 0.00 85 1011.4
20260905182911 60 0.0 0.0 0.00 0.00 0.00 84 1011.4
20260905180912 60 0.0 0.0 0.00 0.00 0.00 84 1011.4
20260905174911 60 0.0 0.0 0.00 0.00 0.00 84 1011.1
20260905171911 60 0.0 0.0 0.00 0.00 0.00 85 1010.8
20260905164912 61 0.0 0.0 0.00 0.00 0.00 85 1010.6
20260905160911 62 0.0 0.0 0.00 0.00 0.00 89 1010.0
20260905154912 61 0.0 0.0 0.00 0.00 0.00 91 1009.9
20260905153912 61 0.0 0.0 0.00 0.00 0.00 91 1009.8
20260905145912 61 0.0 0.0 0.00 0.00 0.00 92 1009.6
20260905144912 60 0.0 0.0 0.00 0.00 0.00 96 1009.6
20260905142911 59 0.0 0.0 0.00 0.00 0.00 97 1009.8
20260905140912 58 0.0 0.0 0.00 0.00 0.00 10 1009.7
20260905134911 57 0.0 0.0 0.00 0.00 0.00 10 1010.3
20260905123912 66 0.0 0.0 0.00 0.00 0.00 73 1009.2
20260905121914 65 0.0 0.0 0.00 0.00 0.00 77 1009.1
20260905113911 69 0.0 0.0 0.00 0.00 0.00 64 1009.0
20260905112912 69 0.0 0.0 0.00 0.00 0.00 66 1009.0
20260905111912 68 0.0 0.0 0.00 0.00 0.00 69 1008.8
20260905110911 67 0.0 0.0 0.00 0.00 0.00 73 1009.0
20260905105911 66 0.0 0.0 0.00 0.00 0.00 76 1009.1
20260905103912 66 0.0 0.0 0.00 0.00 0.00 68 1008.7
20260905102911 68 0.0 0.0 0.00 0.00 0.00 68 1008.8
20260905100911 67 0.0 0.0 0.00 0.00 0.00 68 1008.7
20260905095911 67 0.0 0.0 0.00 0.00 0.00 69 1008.7
20260905094911 67 0.0 0.0 0.00 0.00 0.00 69 1008.8
20260905092913 67 0.0 0.0 0.00 0.00 0.00 71 1008.6
20260905091912 67 0.0 0.0 0.00 0.00 0.00 69 1008.5
20260905084911 66 0.0 0.0 0.00 0.00 0.00 72 1008.3
20260905083911 66 0.0 0.0 0.00 0.00 0.00 73 1008.2
20260905082911 66 0.0 0.0 0.00 0.00 0.00 76 1008.2
20260905080911 64 0.0 0.0 0.00 0.00 0.00 80 1007.9
20260905075911 64 0.0 0.0 0.00 0.00 0.00 81 1007.9
20260905074911 64 0.0 0.0 0.00 0.00 0.00 81 1007.7
20260905072911 63 0.0 0.0 0.00 0.00 0.00 84 1007.5
20260905064912 61 0.0 0.0 0.00 0.00 0.00 90 1007.0
20260905063911 62 0.0 0.0 0.00 0.00 0.00 89 1006.9
20260905062911 62 0.0 0.0 0.00 0.00 0.00 84 1006.9
20260905061910 61 0.0 0.0 0.00 0.00 0.00 84 1006.7
20260905060911 60 0.0 0.0 0.00 0.00 0.00 86 1006.7
20260905055912 60 0.0 0.0 0.00 0.00 0.00 88 1006.7